DW0156 Weather Reports


time (UTC)temp
C
wind
direction
speed
KPH
gust
KPH
rain 1hr
cm
rain 24hr
cm
rain mn
cm
humidity
%
barometer
mb
20260506131738 12 263 4.8 16.1 0.00 0.30 0.30 67 1026.4
20260506131218 12 263 6.4 16.1 0.00 0.30 0.30 67 1026.4
20260506130707 12 263 6.4 17.7 0.00 0.30 0.30 68 1026.4
20260506130147 12 263 6.4 17.7 0.00 0.30 0.30 68 1026.4
20260506125026 12 263 6.4 19.3 0.00 0.30 0.30 70 1026.3
20260506124528 12 263 6.4 19.3 0.00 0.30 0.30 70 1026.3
20260506124011 12 263 4.8 17.7 0.00 0.30 0.30 70 1026.1
20260506123506 12 263 4.8 17.7 0.00 0.30 0.30 70 1026.1
20260506122952 12 263 4.8 17.7 0.00 0.30 0.30 70 1026.1
20260506122454 13 263 4.8 17.7 0.00 0.30 0.30 70 1026.0
20260506121333 13 263 4.8 16.1 0.00 0.30 0.30 70 1025.9
20260506120815 13 263 6.4 17.7 0.00 0.30 0.30 70 1025.9
20260506120313 13 263 6.4 17.7 0.00 0.30 0.30 71 1025.9
20260506115753 13 263 6.4 17.7 0.00 0.30 0.30 73 1025.6
20260506115252 13 263 6.4 17.7 0.00 0.30 0.30 73 1025.6
20260506114251 13 263 6.4 16.1 0.00 0.30 0.30 75 1025.5
20260506113740 13 263 4.8 16.1 0.00 0.30 0.30 76 1025.5
20260506113231 13 263 4.8 16.1 0.00 0.30 0.30 77 1025.5
20260506112740 13 263 6.4 16.1 0.00 0.30 0.30 78 1025.4
20260506112224 13 263 6.4 16.1 0.00 0.30 0.30 78 1025.4
20260506111053 13 263 4.8 16.1 0.00 0.30 0.30 79 1025.4
20260506110541 13 263 6.4 16.1 0.00 0.30 0.30 79 1025.4
20260506110022 13 263 6.4 16.1 0.00 0.30 0.30 79 1025.4
20260506105525 13 263 6.4 12.9 0.00 0.30 0.30 79 1025.3
20260506105014 13 263 6.4 12.9 0.00 0.30 0.30 79 1025.3
20260506104503 13 263 4.8 20.9 0.00 0.30 0.30 79 1025.3
20260506104006 13 263 6.4 20.9 0.00 0.30 0.30 79 1025.0
20260506103459 13 263 6.4 20.9 0.00 0.30 0.30 80 1025.0
20260506102958 13 263 6.4 20.9 0.00 0.30 0.30 80 1025.0
20260506102452 13 263 6.4 16.1 0.00 0.30 0.30 80 1024.9
20260506095426 13 263 6.4 17.7 0.00 0.30 0.30 82 1024.4
20260506094926 13 263 6.4 17.7 0.00 0.30 0.30 82 1024.4
20260506094417 13 263 6.4 29.0 0.00 0.30 0.30 83 1024.4
20260506093917 13 263 8.0 29.0 0.00 0.30 0.30 83 1024.4
20260506092744 14 263 9.7 29.0 0.00 0.30 0.30 83 1024.2
20260506091606 14 263 8.0 24.1 0.00 0.30 0.30 83 1024.2
20260506090426 15 263 9.7 24.1 0.00 0.30 0.30 82 1023.8
20260506085935 15 263 9.7 24.1 0.00 0.30 0.30 82 1023.8
20260506085437 15 263 8.0 25.7 0.00 0.30 0.30 81 1023.4
20260506084923 15 263 9.7 25.7 0.00 0.30 0.30 81 1023.4
20260506084428 15 263 11.3 25.7 0.00 0.30 0.30 80 1023.4
20260506083914 15 263 12.9 25.7 0.00 0.30 0.30 79 1023.2
20260506083354 15 263 9.7 24.1 0.00 0.30 0.30 79 1023.2
20260506082901 16 263 8.0 22.5 0.00 0.30 0.30 78 1022.9
20260506082359 16 263 6.4 22.5 0.00 0.30 0.30 77 1022.9
20260506081845 16 263 6.4 24.1 0.00 0.30 0.30 76 1022.9
20260506081350 16 263 9.7 24.1 0.00 0.30 0.30 76 1022.7
20260506080840 16 263 9.7 24.1 0.00 0.30 0.30 76 1022.7
20260506080331 16 263 8.0 22.5 0.00 0.30 0.30 75 1022.7
20260506073129 17 263 8.0 22.5 0.00 0.30 0.30 70 1022.4
20260506072617 17 263 6.4 22.5 0.00 0.30 0.30 69 1022.3
20260506072112 17 263 6.4 22.5 0.00 0.30 0.30 68 1022.3
20260506070942 17 263 8.0 22.5 0.00 0.30 0.30 67 1022.2
20260506070441 17 263 8.0 17.7 0.00 0.30 0.30 66 1022.2
20260506062052 17 263 8.0 20.9 0.00 0.30 0.30 69 1022.2
20260506061543 17 263 8.0 20.9 0.00 0.30 0.30 70 1022.2
20260506061046 17 263 9.7 20.9 0.00 0.30 0.30 70 1022.0
20260506051345 16 263 6.4 19.3 0.00 0.30 0.30 81 1021.8
20260506050845 16 263 8.0 19.3 0.00 0.30 0.30 81 1021.8
20260506050340 16 263 9.7 24.1 0.00 0.30 0.30 82 1021.8
20260506044707 16 263 6.4 24.1 0.00 0.30 0.30 84 1021.8
20260506044210 16 263 4.8 16.1 0.00 0.30 0.30 86 1021.8
20260506043043 16 263 4.8 22.5 0.08 0.30 0.30 86 1021.8
20260506042537 16 263 6.4 22.5 0.15 0.30 0.30 86 1022.0
20260506042031 16 263 9.7 22.5 0.20 0.30 0.30 85 1022.0
20260506040925 16 263 8.0 20.9 0.00 0.20 0.20 85 1021.7
20260506040405 16 263 6.4 20.9 0.00 0.20 0.20 86 1021.7
20260506035857 16 263 6.4 20.9 0.00 0.20 0.20 86 1021.8
20260506035357 16 263 6.4 14.5 0.00 0.20 0.20 87 1021.8
20260506034847 16 263 4.8 17.7 0.00 0.20 0.20 87 1021.8
20260506034341 16 263 6.4 17.7 0.00 0.20 0.20 87 1022.1
20260506033850 15 263 8.0 24.1 0.00 0.20 0.20 87 1022.1
20260506033359 15 263 6.4 24.1 0.00 0.20 0.20 88 1022.1
20260506032851 15 263 8.0 24.1 0.00 0.20 0.20 88 1022.2
20260506032351 15 263 8.0 24.1 0.08 0.20 0.20 87 1022.2
20260506031858 15 263 8.0 20.9 0.13 0.20 0.20 86 1022.2
20260506031338 16 263 6.4 20.9 0.36 0.20 0.20 85 1022.3
20260506030843 16 263 6.4 17.7 0.10 0.18 0.18 85 1022.3
20260506030345 16 263 8.0 19.3 0.20 0.18 0.18 84 1022.3
20260506025844 16 263 6.4 19.3 0.53 0.15 0.18 82 1022.3
20260506025335 17 263 6.4 19.3 0.36 0.08 0.10 80 1022.3
20260506024819 17 263 6.4 19.3 0.00 0.05 0.08 78 1022.3
20260506024327 17 263 4.8 16.1 0.00 0.05 0.05 75 1022.5
20260506023811 17 263 3.2 12.9 0.00 0.05 0.05 75 1022.5
20260506023313 17 263 3.2 12.9 0.00 0.05 0.05 75 1022.5
20260506022753 17 263 3.2 17.7 0.00 0.05 0.05 75 1022.8
20260506022254 17 263 4.8 17.7 0.00 0.05 0.05 76 1022.8
20260506021751 17 263 6.4 17.7 0.00 0.05 0.05 75 1022.8
20260506020622 17 263 6.4 17.7 0.00 0.05 0.05 76 1023.0
20260506020123 17 263 6.4 17.7 0.00 0.05 0.05 75 1023.0
20260506015631 17 263 6.4 16.1 0.00 0.05 0.05 76 1023.1
20260506015136 17 263 6.4 19.3 0.00 0.05 0.05 77 1023.1
20260506014617 17 263 6.4 19.3 0.00 0.05 0.05 76 1023.1
20260506014118 17 263 6.4 19.3 0.00 0.05 0.05 76 1023.2
20260506013626 17 263 6.4 19.3 0.00 0.05 0.05 77 1023.2
20260506013131 17 263 4.8 19.3 0.00 0.05 0.05 77 1023.2
20260506012637 17 263 6.4 19.3 0.00 0.05 0.05 77 1023.2
20260506012131 17 263 6.4 19.3 0.00 0.05 0.05 77 1023.2
20260506011625 17 263 4.8 19.3 0.00 0.05 0.05 78 1023.2
20260506011106 17 263 6.4 19.3 0.00 0.05 0.05 78 1023.2
20260506010549 17 263 8.0 19.3 0.00 0.05 0.05 77 1023.2
20260506010036 17 263 6.4 14.5 0.00 0.05 0.05 78 1023.2
20260506005517 17 263 3.2 14.5 0.00 0.05 0.05 79 1023.2
20260506003802 16 263 4.8 12.9 0.00 0.05 0.05 83 1023.3
20260506003245 16 263 6.4 17.7 0.00 0.05 0.05 85 1023.3
20260506002734 16 263 6.4 17.7 0.00 0.05 0.05 86 1023.3
20260506002215 15 263 4.8 17.7 0.00 0.05 0.05 87 1023.3
20260506001708 15 263 1.6 17.7 0.00 0.05 0.05 88 1023.3
20260506001204 15 263 3.2 9.7 0.00 0.05 0.05 88 1023.3
20260506000656 15 263 3.2 14.5 0.00 0.05 0.05 89 1023.3
20260506000152 15 263 3.2 14.5 0.00 0.05 0.05 89 1023.3
20260505235654 15 263 4.8 14.5 0.00 0.05 0.05 89 1023.3
20260505235200 15 263 3.2 14.5 0.00 0.05 0.05 89 1023.3
20260505234050 15 263 0.0 3.2 0.00 0.05 0.05 90 1023.3
20260505233534 15 263 0.0 0.0 0.00 0.05 0.05 90 1023.3
20260505231801 14 263 0.0 4.8 0.00 0.05 0.05 90 1023.3
20260505231242 14 263 0.0 0.0 0.00 0.05 0.05 90 1023.3
20260505230723 14 263 0.0 0.0 0.00 0.05 0.05 89 1023.3
20260505230205 14 263 0.0 4.8 0.00 0.05 0.05 90 1023.3
20260505225653 13 263 0.0 0.0 0.00 0.05 0.05 89 1023.2
20260505225152 13 263 1.6 4.8 0.00 0.05 0.05 89 1023.2
20260505224634 13 263 1.6 4.8 0.00 0.05 0.05 89 1023.2
20260505224120 13 263 1.6 8.0 0.00 0.05 0.05 89 1023.1
20260505222939 13 263 1.6 8.0 0.00 0.05 0.05 88 1023.1
20260505222436 13 263 1.6 4.8 0.00 0.05 0.05 88 1023.0
20260505221938 13 263 1.6 4.8 0.00 0.05 0.05 88 1023.0
20260505221426 13 263 1.6 4.8 0.00 0.05 0.05 88 1023.0
20260505220907 13 263 0.0 4.8 0.00 0.05 0.05 87 1022.9
20260505220413 13 263 0.0 3.2 0.08 0.05 0.05 87 1022.9
20260505215244 13 263 0.0 4.8 0.08 0.05 0.05 86 1022.8
20260505214103 13 263 1.6 4.8 0.08 0.03 0.03 85 1022.7
20260505212955 13 263 0.0 1.6 0.00 0.00 0.00 84 1022.7
20260505212450 13 263 0.0 0.0 0.00 0.00 0.00 84 1022.7
20260505211952 13 263 0.0 0.0 0.00 0.00 0.00 84 1022.7
20260505211446 13 263 0.0 4.8 0.00 0.00 0.00 84 1022.7
20260505210941 13 263 0.0 4.8 0.00 0.00 0.00 84 1022.6
20260505210431 13 263 0.0 4.8 0.00 0.00 0.00 84 1022.6
20260505205315 13 263 0.0 3.2 0.00 0.00 0.00 84 1022.5
20260505204817 13 263 0.0 4.8 0.00 0.00 0.00 84 1022.5
20260505203648 13 263 1.6 4.8 0.00 0.00 0.00 83 1022.5
20260505203146 13 263 0.0 4.8 0.00 0.00 0.00 84 1022.5
20260505202033 13 263 0.0 3.2 0.00 0.00 0.00 83 1022.5
20260505201526 13 263 0.0 3.2 0.00 0.00 0.00 83 1022.5
20260505201013 13 263 0.0 0.0 0.00 0.00 0.00 83 1022.5
20260505200512 13 263 0.0 4.8 0.00 0.00 0.00 83 1022.5
20260505200016 13 263 0.0 4.8 0.00 0.00 0.00 83 1022.5
20260505195515 13 263 0.0 4.8 0.00 0.00 0.00 83 1022.4
20260505194406 14 263 0.0 3.2 0.00 0.03 0.00 83 1022.4
20260505193854 14 263 0.0 4.8 0.00 0.03 0.00 83 1022.4
20260505193335 14 263 1.6 4.8 0.00 0.03 0.00 83 1022.4
20260505192818 14 263 1.6 4.8 0.00 0.03 0.00 83 1022.4
20260505191006 14 263 0.0 4.8 0.00 0.03 0.00 83 1022.4
20260505190500 14 263 1.6 4.8 0.00 0.03 0.00 83 1022.4
20260505190003 13 263 1.6 4.8 0.00 0.03 0.00 83 1022.4
20260505185444 13 263 1.6 4.8 0.00 0.03 0.00 83 1022.5
20260505184951 13 263 0.0 4.8 0.00 0.03 0.00 83 1022.5
20260505184442 13 263 0.0 3.2 0.00 0.03 0.00 83 1022.5
20260505183315 13 263 0.0 3.2 0.00 0.03 0.00 83 1022.5
20260505181520 13 263 0.0 3.2 0.00 0.03 0.00 84 1022.4
20260505181027 13 263 0.0 3.2 0.00 0.03 0.00 84 1022.5
20260505180527 13 263 1.6 3.2 0.00 0.03 0.00 84 1022.5
20260505180016 13 263 0.0 3.2 0.00 0.03 0.00 84 1022.5
20260505175523 13 263 0.0 3.2 0.00 0.03 0.00 84 1022.6
20260505174404 13 263 0.0 3.2 0.00 0.13 0.00 84 1022.7
20260505173244 13 263 0.0 3.2 0.00 0.13 0.00 84 1022.7
20260505172731 13 263 0.0 3.2 0.00 0.13 0.00 84 1022.7
20260505172240 13 263 0.0 6.4 0.00 0.13 0.00 84 1022.7
20260505171727 13 263 0.0 6.4 0.00 0.13 0.00 84 1022.7
20260505171209 13 263 0.0 6.4 0.00 0.13 0.00 84 1022.8
20260505170650 13 263 0.0 6.4 0.00 0.13 0.00 84 1022.8
20260505165515 13 263 0.0 1.6 0.00 0.13 0.00 84 1022.8
20260505164322 13 263 0.0 3.2 0.00 0.13 0.00 84 1023.1
20260505163822 13 263 0.0 3.2 0.00 0.13 0.00 84 1023.1
20260505163317 13 263 0.0 0.0 0.00 0.13 0.00 84 1023.1
20260505162811 13 263 0.0 1.6 0.00 0.13 0.00 84 1023.2
20260505162307 13 263 0.0 1.6 0.00 0.13 0.00 84 1023.2
20260505161753 13 263 0.0 1.6 0.00 0.13 0.00 84 1023.2
20260505161245 13 263 0.0 1.6 0.00 0.13 0.00 84 1023.3
20260505160123 14 263 0.0 0.0 0.00 0.20 0.00 84 1023.3
20260505153223 14 263 0.0 1.6 0.00 0.20 0.00 84 1023.4
20260505152732 14 263 0.0 0.0 0.00 0.20 0.00 84 1023.5
20260505152216 14 263 0.0 3.2 0.00 0.23 0.00 84 1023.5
20260505151702 13 263 0.0 3.2 0.00 0.25 0.00 84 1023.5
20260505151149 14 263 0.0 1.6 0.00 0.25 0.00 84 1023.7
20260505150643 13 263 0.0 3.2 0.00 0.25 0.00 83 1023.7
20260505150134 14 263 0.0 3.2 0.00 0.25 0.00 84 1023.7
20260505140555 14 263 0.0 0.0 0.00 0.28 0.28 83 1023.8